EW2997 Weather Reports


time (UTC)temp
F
wind
direction
speed
knots
gust
knots
rain 1hr
in
rain 24hr
in
rain mn
in
humidity
%
barometer
mb
20260502201631 52 354 1.7 1.7 0.00 0.00 0.00 50 1016.0
20260502194629 52 24 2.6 2.6 0.00 0.00 0.00 49 1016.3
20260502191627 54 11 2.6 2.6 0.00 0.00 0.00 47 1016.7
20260502184625 53 12 2.6 2.6 0.00 0.00 0.00 50 1017.0
20260502181620 53 347 4.3 4.3 0.00 0.00 0.00 52 1017.4
20260502161614 51 245 1.7 1.7 0.00 0.00 0.00 54 1017.7
20260502151606 48 246 2.6 2.6 0.00 0.00 0.00 61 1017.7
20260502121554 42 138 0.0 0.0 0.00 0.00 0.00 79 1018.4
20260502114553 41 132 1.7 1.7 0.00 0.00 0.00 82 1018.7
20260502111549 39 198 0.0 0.0 0.00 0.00 0.00 86 1018.4
20260502104544 37 168 0.0 0.0 0.00 0.00 0.00 89 1018.0
20260502101540 38 156 0.0 0.0 0.00 0.00 0.00 85 1018.4
20260502071527 40 0 0.0 0.0 0.00 0.00 0.00 89 1017.0
20260502064527 41 193 0.0 0.0 0.00 0.00 0.00 89 1016.7
20260502061523 42 156 0.0 0.0 0.00 0.00 0.00 86 1016.7
20260502054519 45 6 1.7 1.7 0.00 0.00 0.00 78 1017.0
20260502051516 45 136 0.0 0.0 0.00 0.00 0.00 81 1016.7
20260502044513 45 126 1.7 1.7 0.00 0.00 0.00 84 1017.0
20260502041511 47 209 1.7 1.7 0.00 0.00 0.00 82 1016.7
20260502034510 47 180 1.7 1.7 0.01 0.04 0.04 90 1016.7
20260502031506 47 174 0.0 0.0 0.01 0.04 0.04 94 1016.0
20260502024503 48 162 0.0 0.0 0.02 0.03 0.03 92 1016.3
20260502021459 49 125 0.0 0.0 0.01 0.02 0.02 89 1016.7
20260502014459 52 36 0.0 0.0 0.00 0.00 0.00 77 1016.0
20260502011456 53 22 3.5 3.5 0.00 0.00 0.00 65 1014.9
20260502004454 54 338 3.5 3.5 0.00 0.00 0.00 61 1014.5
20260502001455 55 34 1.7 1.7 0.00 0.00 0.00 62 1013.9
20260501234452 57 320 0.0 0.0 0.00 0.00 0.00 65 1013.2
20260501231448 58 198 0.0 0.0 0.00 0.00 0.00 59 1013.2
20260501224444 59 168 2.6 2.6 0.00 0.00 0.00 54 1013.2
20260501221441 58 208 1.7 1.7 0.00 0.00 0.00 59 1013.5
20260501214438 57 126 0.0 0.0 0.00 0.00 0.00 58 1013.5
20260501211435 59 350 3.5 3.5 0.00 0.00 0.00 56 1013.2
20260501204433 60 239 3.5 3.5 0.00 0.00 0.00 49 1013.2